Year,Month,Day,Hour,Minute,Value (Times are PST for temperature in C)
2012,12,16,00,00,5.30
2012,12,16,00,01,5.30
2012,12,16,00,02,5.40
2012,12,16,00,03,5.40
2012,12,16,00,04,5.40
2012,12,16,00,05,5.40
2012,12,16,00,06,5.50
2012,12,16,00,07,5.50
2012,12,16,00,08,5.60
2012,12,16,00,09,5.60
2012,12,16,00,10,5.60
2012,12,16,00,11,5.50
2012,12,16,00,12,5.50
2012,12,16,00,13,5.50
2012,12,16,00,14,5.50
2012,12,16,00,15,5.50
2012,12,16,00,16,5.50
2012,12,16,00,17,5.40
2012,12,16,00,18,5.40
2012,12,16,00,19,5.40
2012,12,16,00,20,5.40
2012,12,16,00,21,5.40
2012,12,16,00,22,5.40
2012,12,16,00,23,5.40
2012,12,16,00,24,5.30
2012,12,16,00,25,5.30
2012,12,16,00,26,5.30
2012,12,16,00,27,5.40
2012,12,16,00,28,5.40
2012,12,16,00,29,5.40
2012,12,16,00,30,5.40
2012,12,16,00,31,5.40
2012,12,16,00,32,5.40
2012,12,16,00,33,5.40
2012,12,16,00,34,5.40
2012,12,16,00,35,5.40
2012,12,16,00,36,5.40
2012,12,16,00,37,5.40
2012,12,16,00,38,5.40
2012,12,16,00,39,5.40
2012,12,16,00,40,5.40
2012,12,16,00,41,5.40
2012,12,16,00,42,5.40
2012,12,16,00,43,5.40
2012,12,16,00,44,5.40
2012,12,16,00,45,5.30
2012,12,16,00,46,5.30
2012,12,16,00,47,5.30
2012,12,16,00,48,5.30
2012,12,16,00,49,5.30
2012,12,16,00,50,5.30
2012,12,16,00,51,5.30
2012,12,16,00,52,5.20
2012,12,16,00,53,5.20
2012,12,16,00,54,5.20
2012,12,16,00,55,5.20
2012,12,16,00,56,5.20
2012,12,16,00,57,5.10
2012,12,16,00,58,5.10
2012,12,16,00,59,5.10
2012,12,16,01,00,5.10
2012,12,16,01,01,5.20
2012,12,16,01,02,5.10
2012,12,16,01,03,5.10
2012,12,16,01,04,5.10
2012,12,16,01,05,5.10
2012,12,16,01,06,5.10
2012,12,16,01,07,5.00
2012,12,16,01,08,4.90
2012,12,16,01,09,4.90
2012,12,16,01,10,4.80
2012,12,16,01,11,4.80
2012,12,16,01,12,4.80
2012,12,16,01,13,4.80
2012,12,16,01,14,4.80
2012,12,16,01,15,4.70
2012,12,16,01,16,4.70
2012,12,16,01,17,4.70
2012,12,16,01,18,4.70
2012,12,16,01,19,4.70
2012,12,16,01,20,4.70
2012,12,16,01,21,4.70
2012,12,16,01,22,4.70
2012,12,16,01,23,4.70
2012,12,16,01,24,4.70
2012,12,16,01,25,4.70
2012,12,16,01,26,4.70
2012,12,16,01,27,4.70
2012,12,16,01,28,4.70
2012,12,16,01,29,4.70
2012,12,16,01,30,4.70
2012,12,16,01,31,4.70
2012,12,16,01,32,4.70
2012,12,16,01,33,4.70
2012,12,16,01,34,4.70
2012,12,16,01,35,4.70
2012,12,16,01,36,4.70
2012,12,16,01,37,4.70
2012,12,16,01,38,4.80
2012,12,16,01,39,4.80
2012,12,16,01,40,4.80
2012,12,16,01,41,4.80
2012,12,16,01,42,4.80
2012,12,16,01,43,4.80
2012,12,16,01,44,4.70
2012,12,16,01,45,4.70
2012,12,16,01,46,4.70
2012,12,16,01,47,4.70
2012,12,16,01,48,4.70
2012,12,16,01,49,4.70
2012,12,16,01,50,4.70
2012,12,16,01,51,4.70
2012,12,16,01,52,4.70
2012,12,16,01,53,4.70
2012,12,16,01,54,4.70
2012,12,16,01,55,4.70
2012,12,16,01,56,4.70
2012,12,16,01,57,4.70
2012,12,16,01,58,4.70
2012,12,16,01,59,4.60
2012,12,16,02,00,4.60
2012,12,16,02,01,4.60
2012,12,16,02,02,4.60
2012,12,16,02,03,4.70
2012,12,16,02,04,4.70
2012,12,16,02,05,4.60
2012,12,16,02,06,4.60
2012,12,16,02,07,4.60
2012,12,16,02,08,4.60
2012,12,16,02,09,4.50
2012,12,16,02,10,4.50
2012,12,16,02,11,4.50
2012,12,16,02,12,4.40
2012,12,16,02,13,4.40
2012,12,16,02,14,4.40
2012,12,16,02,15,4.40
2012,12,16,02,16,4.40
2012,12,16,02,17,4.40
2012,12,16,02,18,4.40
2012,12,16,02,19,4.40
2012,12,16,02,20,4.40
2012,12,16,02,21,4.40
2012,12,16,02,22,4.40
2012,12,16,02,23,4.40
2012,12,16,02,24,4.40
2012,12,16,02,25,4.40
2012,12,16,02,26,4.40
2012,12,16,02,27,4.40
2012,12,16,02,28,4.40
2012,12,16,02,29,4.40
2012,12,16,02,30,4.40
2012,12,16,02,31,4.40
2012,12,16,02,32,4.40
2012,12,16,09,18,4.60
2012,12,16,09,19,4.60
2012,12,16,09,20,4.60
2012,12,16,09,21,4.60
2012,12,16,09,22,4.70
2012,12,16,09,23,4.70
2012,12,16,09,24,4.70
2012,12,16,09,25,4.70
2012,12,16,09,26,4.80
2012,12,16,09,27,4.80
2012,12,16,09,28,4.80
2012,12,16,09,29,4.80
2012,12,16,09,30,4.90
2012,12,16,09,31,4.90
2012,12,16,09,32,4.90
2012,12,16,09,33,4.90
2012,12,16,09,34,4.90
2012,12,16,09,35,4.90
2012,12,16,09,36,4.90
2012,12,16,09,37,4.90
2012,12,16,09,38,4.90
2012,12,16,09,39,4.90
2012,12,16,09,40,4.90
2012,12,16,09,41,4.90
2012,12,16,09,42,5.00
2012,12,16,09,43,5.00
2012,12,16,09,44,5.00
2012,12,16,09,45,5.00
2012,12,16,09,46,5.00
2012,12,16,09,47,5.00
2012,12,16,09,48,5.10
2012,12,16,09,49,5.10
2012,12,16,09,50,5.10
2012,12,16,09,51,5.10
2012,12,16,09,52,5.10
2012,12,16,09,53,5.10
2012,12,16,09,54,5.10
2012,12,16,09,55,5.20
2012,12,16,09,56,5.20
2012,12,16,09,57,5.20
2012,12,16,09,58,5.20
2012,12,16,09,59,5.20
2012,12,16,10,00,5.30
2012,12,16,10,01,5.30
2012,12,16,10,02,5.30
2012,12,16,10,03,5.30
2012,12,16,10,04,5.30
2012,12,16,10,05,5.30
2012,12,16,10,06,5.30
2012,12,16,10,07,5.30
2012,12,16,10,08,5.30
2012,12,16,10,09,5.30
2012,12,16,10,10,5.30
2012,12,16,10,11,5.30
2012,12,16,10,12,5.20
2012,12,16,10,13,5.20
2012,12,16,10,14,5.20
2012,12,16,10,15,5.20
2012,12,16,10,16,5.10
2012,12,16,10,17,5.10
2012,12,16,10,18,5.10
2012,12,16,10,19,5.10
2012,12,16,10,20,5.10
2012,12,16,10,21,5.00
2012,12,16,10,22,5.00
2012,12,16,10,23,5.00
2012,12,16,10,24,4.90
2012,12,16,10,25,4.90
2012,12,16,10,26,4.90
2012,12,16,10,27,4.90
2012,12,16,10,28,4.90
2012,12,16,10,29,4.90
2012,12,16,10,30,4.90
2012,12,16,10,31,4.90
2012,12,16,10,32,4.90
2012,12,16,10,33,5.00
2012,12,16,10,34,5.00
2012,12,16,10,35,5.00
2012,12,16,10,36,5.00
2012,12,16,10,37,5.00
2012,12,16,10,38,5.10
2012,12,16,10,39,5.10
2012,12,16,10,40,5.10
2012,12,16,10,41,5.10
2012,12,16,10,42,5.10
2012,12,16,10,43,5.10
2012,12,16,10,44,5.10
2012,12,16,10,45,5.10
2012,12,16,10,46,5.10
2012,12,16,10,47,5.10
2012,12,16,10,48,5.10
2012,12,16,10,49,5.10
2012,12,16,10,50,5.10
2012,12,16,10,51,5.10
2012,12,16,10,52,5.10
2012,12,16,10,53,5.10
2012,12,16,10,54,5.10
2012,12,16,10,55,5.10
2012,12,16,10,56,5.10
2012,12,16,10,57,5.10
2012,12,16,10,58,5.10
2012,12,16,10,59,5.10
2012,12,16,11,00,5.10
2012,12,16,11,01,5.10
2012,12,16,11,02,5.10
2012,12,16,11,03,5.10
2012,12,16,11,04,5.10
2012,12,16,11,05,5.10
2012,12,16,11,06,5.10
2012,12,16,11,07,5.10
2012,12,16,11,08,5.10
2012,12,16,11,09,5.10
2012,12,16,11,10,5.10
2012,12,16,11,11,5.10
2012,12,16,11,12,5.20
2012,12,16,11,13,5.20
2012,12,16,11,14,5.20
2012,12,16,11,15,5.20
2012,12,16,11,16,5.10
2012,12,16,11,17,5.10
2012,12,16,11,18,5.10
2012,12,16,11,19,5.10
2012,12,16,11,20,5.10
2012,12,16,11,21,5.10
2012,12,16,11,22,5.10
2012,12,16,11,23,5.10
2012,12,16,11,24,5.10
2012,12,16,11,25,5.10
2012,12,16,11,26,5.10
2012,12,16,11,27,5.10
2012,12,16,11,28,5.10
2012,12,16,11,29,5.10
2012,12,16,11,30,5.10
2012,12,16,11,31,5.00
2012,12,16,11,32,5.10
2012,12,16,11,33,5.00
2012,12,16,11,34,5.00
2012,12,16,11,35,5.00
2012,12,16,11,36,5.00
2012,12,16,11,37,5.00
2012,12,16,11,38,5.00
2012,12,16,11,39,5.00
2012,12,16,11,40,5.00
2012,12,16,11,41,5.00
2012,12,16,11,42,5.00
2012,12,16,11,43,5.00
2012,12,16,11,44,5.00
2012,12,16,11,45,4.90
2012,12,16,11,46,5.00
2012,12,16,11,47,5.00
2012,12,16,11,48,5.00
2012,12,16,11,49,5.00
2012,12,16,11,50,5.00
2012,12,16,11,51,5.00
2012,12,16,11,52,5.00
2012,12,16,11,53,5.00
2012,12,16,11,54,5.00
2012,12,16,11,55,5.00
2012,12,16,11,56,5.00
2012,12,16,11,57,5.00
2012,12,16,11,58,5.00
2012,12,16,11,59,5.00
2012,12,16,12,00,5.00
2012,12,16,12,01,5.00
2012,12,16,12,02,5.00
2012,12,16,12,03,5.00
2012,12,16,12,04,5.00
2012,12,16,12,05,5.00
2012,12,16,12,06,5.00
2012,12,16,12,07,5.00
2012,12,16,12,08,5.00
2012,12,16,12,09,5.00
2012,12,16,12,10,5.00
2012,12,16,12,11,5.00
2012,12,16,12,12,5.00
2012,12,16,12,13,5.00
2012,12,16,12,14,5.00
2012,12,16,12,15,5.10
2012,12,16,12,16,5.10
2012,12,16,12,17,5.10
2012,12,16,12,18,5.10
2012,12,16,12,19,5.10
2012,12,16,12,20,5.10
2012,12,16,12,21,5.10
2012,12,16,12,22,5.10
2012,12,16,12,23,5.10
2012,12,16,12,24,5.10
2012,12,16,12,25,5.10
2012,12,16,12,26,5.10
2012,12,16,12,27,5.20
2012,12,16,12,28,5.20
2012,12,16,12,29,5.20
2012,12,16,12,30,5.20
2012,12,16,12,31,5.20
2012,12,16,12,32,5.20
2012,12,16,12,33,5.20
2012,12,16,12,34,5.30
2012,12,16,12,35,5.30
2012,12,16,12,36,5.30
2012,12,16,12,37,5.30
2012,12,16,12,38,5.30
2012,12,16,12,39,5.30
2012,12,16,12,40,5.30
2012,12,16,12,41,5.30
2012,12,16,12,42,5.30
2012,12,16,12,43,5.20
2012,12,16,12,44,5.30
2012,12,16,12,45,5.30
2012,12,16,12,46,5.30
2012,12,16,12,47,5.30
2012,12,16,12,48,5.30
2012,12,16,12,49,5.30
2012,12,16,12,50,5.30
2012,12,16,12,51,5.30
2012,12,16,12,52,5.30
2012,12,16,12,53,5.30
2012,12,16,12,54,5.30
2012,12,16,12,55,5.30
2012,12,16,12,56,5.30
2012,12,16,12,57,5.30
2012,12,16,12,58,5.30
2012,12,16,12,59,5.30
2012,12,16,13,00,5.30
2012,12,16,13,01,5.30
2012,12,16,13,02,5.30
2012,12,16,13,03,5.30
2012,12,16,13,04,5.30
2012,12,16,13,05,5.30
2012,12,16,13,06,5.30
2012,12,16,13,07,5.30
2012,12,16,13,08,5.30
2012,12,16,13,09,5.30
2012,12,16,13,10,5.30
2012,12,16,13,11,5.30
2012,12,16,13,12,5.30
2012,12,16,13,13,5.30
2012,12,16,13,14,5.30
2012,12,16,13,15,5.30
2012,12,16,13,16,5.30
2012,12,16,13,17,5.30
2012,12,16,13,18,5.30
2012,12,16,13,19,5.30
2012,12,16,13,20,5.30
2012,12,16,13,21,5.30
2012,12,16,13,22,5.30
2012,12,16,13,23,5.30
2012,12,16,13,24,5.30
2012,12,16,13,25,5.30
2012,12,16,13,26,5.30
2012,12,16,13,27,5.30
2012,12,16,13,28,5.30
2012,12,16,13,29,5.30
2012,12,16,13,30,5.30
2012,12,16,13,31,5.30
2012,12,16,13,32,5.30
2012,12,16,13,33,5.30
2012,12,16,13,34,5.30
2012,12,16,13,35,5.30
2012,12,16,13,36,5.30
2012,12,16,13,37,5.30
2012,12,16,13,38,5.30
2012,12,16,13,39,5.30
2012,12,16,13,40,5.30
2012,12,16,13,41,5.30
2012,12,16,13,42,5.30
2012,12,16,13,43,5.30
2012,12,16,13,44,5.30
2012,12,16,13,45,5.30
2012,12,16,13,46,5.30
2012,12,16,13,47,5.30
2012,12,16,13,48,5.20
2012,12,16,13,49,5.20
2012,12,16,13,50,5.20
2012,12,16,13,51,5.20
2012,12,16,13,52,5.20
2012,12,16,13,53,5.20
2012,12,16,13,54,5.20
2012,12,16,13,55,5.20
2012,12,16,13,56,5.10
2012,12,16,13,57,5.10
2012,12,16,13,58,5.10
2012,12,16,13,59,5.10
2012,12,16,14,00,5.10
2012,12,16,14,01,5.10
2012,12,16,14,02,5.10
2012,12,16,14,03,5.10
2012,12,16,14,04,5.10
2012,12,16,14,05,5.10
2012,12,16,14,06,5.10
2012,12,16,14,07,5.10
2012,12,16,14,08,5.10
2012,12,16,14,09,5.10
2012,12,16,14,10,5.10
2012,12,16,14,11,5.10
2012,12,16,14,12,5.10
2012,12,16,14,13,5.10
2012,12,16,14,14,5.10
2012,12,16,14,15,5.10
2012,12,16,14,16,5.10
2012,12,16,14,17,5.10
2012,12,16,14,18,5.10
2012,12,16,14,19,5.10
2012,12,16,14,20,5.00
2012,12,16,14,21,5.00
2012,12,16,14,22,5.00
2012,12,16,14,23,5.00
2012,12,16,14,24,4.90
2012,12,16,14,25,4.90
2012,12,16,14,26,4.90
2012,12,16,14,27,4.90
2012,12,16,14,28,4.90
2012,12,16,14,29,4.80
2012,12,16,14,30,4.80
2012,12,16,14,31,4.80
2012,12,16,14,32,4.80
2012,12,16,14,33,4.80
2012,12,16,14,34,4.70
2012,12,16,14,35,4.70
2012,12,16,14,36,4.70
2012,12,16,14,37,4.70
2012,12,16,14,38,4.70
2012,12,16,14,39,4.60
2012,12,16,14,40,4.60
2012,12,16,14,41,4.60
2012,12,16,14,42,4.60
2012,12,16,14,43,4.60
2012,12,16,14,44,4.60
2012,12,16,14,45,4.60
2012,12,16,14,46,4.60
2012,12,16,14,47,4.50
2012,12,16,14,48,4.50
2012,12,16,14,49,4.50
2012,12,16,14,50,4.40
2012,12,16,14,51,4.40
2012,12,16,14,52,4.40
2012,12,16,14,53,4.40
2012,12,16,14,54,4.40
2012,12,16,14,55,4.40
2012,12,16,14,56,4.40
2012,12,16,14,57,4.40
2012,12,16,14,58,4.40
2012,12,16,14,59,4.40
2012,12,16,15,00,4.40
2012,12,16,15,01,4.40
2012,12,16,15,02,4.30
2012,12,16,15,03,4.30
2012,12,16,15,04,4.30
2012,12,16,15,05,4.30
2012,12,16,15,06,4.30
2012,12,16,15,07,4.30
2012,12,16,15,08,4.30
2012,12,16,15,09,4.30
2012,12,16,15,10,4.30
2012,12,16,15,11,4.30
2012,12,16,15,12,4.30
2012,12,16,15,13,4.20
2012,12,16,15,14,4.20
2012,12,16,15,15,4.20
2012,12,16,15,16,4.20
2012,12,16,15,17,4.20
2012,12,16,15,18,4.20
2012,12,16,15,19,4.20
2012,12,16,15,20,4.20
2012,12,16,15,21,4.20
2012,12,16,15,22,4.20
2012,12,16,15,23,4.20
2012,12,16,15,24,4.20
2012,12,16,15,25,4.20
2012,12,16,15,26,4.10
2012,12,16,15,27,4.10
2012,12,16,15,28,4.10
2012,12,16,15,29,4.10
2012,12,16,15,30,4.10
2012,12,16,15,31,4.10
2012,12,16,15,32,4.10
2012,12,16,15,33,4.10
2012,12,16,15,34,4.10
2012,12,16,15,35,4.10
2012,12,16,15,36,4.10
2012,12,16,15,37,4.10
2012,12,16,15,38,4.10
2012,12,16,15,39,4.10
2012,12,16,15,40,4.10
2012,12,16,15,41,4.10
2012,12,16,15,42,4.10
2012,12,16,15,43,4.10
2012,12,16,15,44,4.10
2012,12,16,15,45,4.10
2012,12,16,15,46,4.10
2012,12,16,15,47,4.10
2012,12,16,15,48,4.10
2012,12,16,15,49,4.10
2012,12,16,15,50,4.10
2012,12,16,15,51,4.10
2012,12,16,15,52,4.10
2012,12,16,15,53,4.10
2012,12,16,15,54,4.10
2012,12,16,15,55,4.10
2012,12,16,15,56,4.00
2012,12,16,15,57,4.00
2012,12,16,15,58,4.00
2012,12,16,15,59,4.00
2012,12,16,16,00,3.90
2012,12,16,16,01,3.90
2012,12,16,16,02,3.90
2012,12,16,16,03,3.80
2012,12,16,16,04,3.80
2012,12,16,16,05,3.80
2012,12,16,16,06,3.80
2012,12,16,16,07,3.80
2012,12,16,16,08,3.80
2012,12,16,16,09,3.80
2012,12,16,16,10,3.70
2012,12,16,16,11,3.70
2012,12,16,16,12,3.70
2012,12,16,16,13,3.70
2012,12,16,16,14,3.60
2012,12,16,16,15,3.60
2012,12,16,16,16,3.50
2012,12,16,16,17,3.50
2012,12,16,16,18,3.40
2012,12,16,16,19,3.30
2012,12,16,16,20,3.30
2012,12,16,16,21,3.20
2012,12,16,16,22,3.20
2012,12,16,16,23,3.10
2012,12,16,16,24,3.10
2012,12,16,16,25,3.10
2012,12,16,16,26,3.10
2012,12,16,16,27,3.10
2012,12,16,16,28,3.10
2012,12,16,16,29,3.10
2012,12,16,16,30,3.10
2012,12,16,16,31,3.20
2012,12,16,16,32,3.20
2012,12,16,16,33,3.20
2012,12,16,16,34,3.20
2012,12,16,16,35,3.10
2012,12,16,16,36,3.10
2012,12,16,16,37,3.10
2012,12,16,16,38,3.10
2012,12,16,16,39,3.10
2012,12,16,16,40,3.10
2012,12,16,16,41,3.10
2012,12,16,16,42,3.10
2012,12,16,16,43,3.10
2012,12,16,16,44,3.10
2012,12,16,16,45,3.10
2012,12,16,16,46,3.10
2012,12,16,16,47,3.00
2012,12,16,16,48,3.00
2012,12,16,16,49,3.00
2012,12,16,16,50,3.00
2012,12,16,16,51,3.00
2012,12,16,16,52,3.00
2012,12,16,16,53,3.00
2012,12,16,16,54,3.00
2012,12,16,16,55,3.00
2012,12,16,16,56,3.00
2012,12,16,16,57,3.00
2012,12,16,16,58,3.00
2012,12,16,16,59,2.90
2012,12,16,17,00,2.90
2012,12,16,17,01,2.90
2012,12,16,17,02,2.90
2012,12,16,17,03,2.80
2012,12,16,17,04,2.80
2012,12,16,17,05,2.80
2012,12,16,17,06,2.80
2012,12,16,17,07,2.80
2012,12,16,17,08,2.80
2012,12,16,17,09,2.80
2012,12,16,17,10,2.80
2012,12,16,17,11,2.70
2012,12,16,17,12,2.70
2012,12,16,17,13,2.70
2012,12,16,17,14,2.70
2012,12,16,17,15,2.70
2012,12,16,17,16,2.70
2012,12,16,17,17,2.60
2012,12,16,17,18,2.60
2012,12,16,17,19,2.60
2012,12,16,17,20,2.60
2012,12,16,17,21,2.60
2012,12,16,17,22,2.60
2012,12,16,17,23,2.60
2012,12,16,17,24,2.60
2012,12,16,17,25,2.60
2012,12,16,17,26,2.60
2012,12,16,17,27,2.60
2012,12,16,17,28,2.60
2012,12,16,17,29,2.60
2012,12,16,17,30,2.60
2012,12,16,17,31,2.60
2012,12,16,17,32,2.50
2012,12,16,17,33,2.50
2012,12,16,17,34,2.50
2012,12,16,17,35,2.40
2012,12,16,17,36,2.40
2012,12,16,17,37,2.40
2012,12,16,17,38,2.30
2012,12,16,17,39,2.30
2012,12,16,17,40,2.30
2012,12,16,17,41,2.30
2012,12,16,17,42,2.30
2012,12,16,17,43,2.30
2012,12,16,17,44,2.30
2012,12,16,17,45,2.30
2012,12,16,17,46,2.30
2012,12,16,17,47,2.30
2012,12,16,17,48,2.20
2012,12,16,17,49,2.20
2012,12,16,17,50,2.20
2012,12,16,17,51,2.20
2012,12,16,17,52,2.20
2012,12,16,17,53,2.20
2012,12,16,17,54,2.20
2012,12,16,17,55,2.20
2012,12,16,17,56,2.20
2012,12,16,17,57,2.20
2012,12,16,17,58,2.20
2012,12,16,17,59,2.20
2012,12,16,18,00,2.20
2012,12,16,18,01,2.20
2012,12,16,18,02,2.20
2012,12,16,18,03,2.20
2012,12,16,18,04,2.20
2012,12,16,18,05,2.20
2012,12,16,18,06,2.20
2012,12,16,18,07,2.20
2012,12,16,18,08,2.20
2012,12,16,18,09,2.30
2012,12,16,18,10,2.20
2012,12,16,18,11,2.20
2012,12,16,18,12,2.20
2012,12,16,18,13,2.20
2012,12,16,18,14,2.20
2012,12,16,18,15,2.20
2012,12,16,18,16,2.20
2012,12,16,18,17,2.30
2012,12,16,18,18,2.30
2012,12,16,19,06,2.70
2012,12,16,19,07,2.70
2012,12,16,19,08,2.70
2012,12,16,19,09,2.70
2012,12,16,19,10,2.70
2012,12,16,19,11,2.70
2012,12,16,19,12,2.70
2012,12,16,19,13,2.70
2012,12,16,19,14,2.70
2012,12,16,19,15,2.70
2012,12,16,19,16,2.70
2012,12,16,19,17,2.80
2012,12,16,19,18,2.80
2012,12,16,19,19,2.80
2012,12,16,19,20,2.90
2012,12,16,19,21,2.90
2012,12,16,19,22,2.90
2012,12,16,19,23,2.90
2012,12,16,19,24,2.90
2012,12,16,19,25,2.90
2012,12,16,19,26,3.00
2012,12,16,19,27,3.00
2012,12,16,19,28,3.00
2012,12,16,19,29,3.00
2012,12,16,19,30,3.00
2012,12,16,19,31,3.00
2012,12,16,19,32,3.00
2012,12,16,19,33,3.00
2012,12,16,19,34,3.00
2012,12,16,19,35,2.90
2012,12,16,19,36,3.00
2012,12,16,19,37,2.90
2012,12,16,19,38,2.90
2012,12,16,19,39,2.90
2012,12,16,19,40,2.90
2012,12,16,19,41,2.90
2012,12,16,19,42,2.90
2012,12,16,19,43,2.90
2012,12,16,19,44,2.80
2012,12,16,19,45,2.80
2012,12,16,19,46,2.80
2012,12,16,19,47,2.80
2012,12,16,19,48,2.80
2012,12,16,19,49,2.80
2012,12,16,19,50,2.80
2012,12,16,19,51,2.80
2012,12,16,19,52,2.80
2012,12,16,19,53,2.80
2012,12,16,19,54,2.80
2012,12,16,19,55,2.80
2012,12,16,19,56,2.80
2012,12,16,19,57,2.80
2012,12,16,19,58,2.80
2012,12,16,19,59,2.80
2012,12,16,20,00,2.80
2012,12,16,20,01,2.80
2012,12,16,20,02,2.80
2012,12,16,20,03,2.80
2012,12,16,20,04,2.90
2012,12,16,20,05,2.90
2012,12,16,20,06,2.90
2012,12,16,20,07,2.90
2012,12,16,20,08,2.80
2012,12,16,20,09,2.80
2012,12,16,20,10,2.90
2012,12,16,20,11,2.90
2012,12,16,20,12,2.90
2012,12,16,20,13,2.90
2012,12,16,20,14,2.90
2012,12,16,20,15,3.00
2012,12,16,20,16,3.00
2012,12,16,20,17,3.00
2012,12,16,20,18,3.10
2012,12,16,20,19,3.10
2012,12,16,20,20,3.10
2012,12,16,20,21,3.20
2012,12,16,20,22,3.10
2012,12,16,20,23,3.10
2012,12,16,20,24,3.10
2012,12,16,20,25,3.10
2012,12,16,20,26,3.10
2012,12,16,20,27,3.10
2012,12,16,20,28,3.10
2012,12,16,20,29,3.20
2012,12,16,20,30,3.20
2012,12,16,20,31,3.20
2012,12,16,20,32,3.20
2012,12,16,20,33,3.20
2012,12,16,20,34,3.20
2012,12,16,20,35,3.20
2012,12,16,20,36,3.20
2012,12,16,20,37,3.20
2012,12,16,20,38,3.20
2012,12,16,20,39,3.20
2012,12,16,20,40,3.20
2012,12,16,20,41,3.20
2012,12,16,20,42,3.20
2012,12,16,20,43,3.20
2012,12,16,20,44,3.20
2012,12,16,20,45,3.20
2012,12,16,20,46,3.20
2012,12,16,20,47,3.20
2012,12,16,20,48,3.20
2012,12,16,20,49,3.20
2012,12,16,20,50,3.20
2012,12,16,20,51,3.20
2012,12,16,20,52,3.20
2012,12,16,20,53,3.30
2012,12,16,20,54,3.30
2012,12,16,20,55,3.30
2012,12,16,20,56,3.30
2012,12,16,20,57,3.30
2012,12,16,20,58,3.30
2012,12,16,20,59,3.30
2012,12,16,21,00,3.40
2012,12,16,21,01,3.40
2012,12,16,21,02,3.40
2012,12,16,21,03,3.40
2012,12,16,21,04,3.40
2012,12,16,21,05,3.50
2012,12,16,21,06,3.50
2012,12,16,21,07,3.50
2012,12,16,21,08,3.50
2012,12,16,21,09,3.50
2012,12,16,21,10,3.50
2012,12,16,21,11,3.60
2012,12,16,21,12,3.60
2012,12,16,21,13,3.60
2012,12,16,21,14,3.60
2012,12,16,21,15,3.60
2012,12,16,21,16,3.60
2012,12,16,21,17,3.60
2012,12,16,21,18,3.70
2012,12,16,21,19,3.70
2012,12,16,21,20,3.70
2012,12,16,21,21,3.70
2012,12,16,21,22,3.70
2012,12,16,21,23,3.70
2012,12,16,21,24,3.80
2012,12,16,21,25,3.80
2012,12,16,21,26,3.80
2012,12,16,21,27,3.80
2012,12,16,21,28,3.80
2012,12,16,21,29,3.80
2012,12,16,21,30,3.80
2012,12,16,21,31,3.80
2012,12,16,21,32,3.80
2012,12,16,21,33,3.90
2012,12,16,21,34,3.90
2012,12,16,21,35,3.90
2012,12,16,21,36,3.90
2012,12,16,21,37,4.00
2012,12,16,21,38,4.00
2012,12,16,21,39,4.00
2012,12,16,21,40,4.10
2012,12,16,21,41,4.10
2012,12,16,21,42,4.10
2012,12,16,21,43,4.10
2012,12,16,21,44,4.10
2012,12,16,21,45,4.20
2012,12,16,21,46,4.20
2012,12,16,21,47,4.30
2012,12,16,21,48,4.30
2012,12,16,21,49,4.30
2012,12,16,21,50,4.40
2012,12,16,21,51,4.50
2012,12,16,21,52,4.60
2012,12,16,21,53,4.60
2012,12,16,21,54,4.60
2012,12,16,21,55,4.60
2012,12,16,21,56,4.70
2012,12,16,21,57,4.70
2012,12,16,21,58,4.70
2012,12,16,21,59,4.70
2012,12,16,22,00,4.80
2012,12,16,22,01,4.80
2012,12,16,22,02,4.80
2012,12,16,22,03,4.80
2012,12,16,22,04,4.80
2012,12,16,22,05,4.80
2012,12,16,22,06,4.80
2012,12,16,22,07,4.80
2012,12,16,22,08,4.80
2012,12,16,22,09,4.80
2012,12,16,22,10,4.80
2012,12,16,22,11,4.80
2012,12,16,22,12,4.80
2012,12,16,22,13,4.80
2012,12,16,22,14,4.90
2012,12,16,22,15,4.90
2012,12,16,22,16,4.90
2012,12,16,22,17,4.90
2012,12,16,22,18,4.90
2012,12,16,22,19,4.90
2012,12,16,22,20,4.90
2012,12,16,22,21,4.90
2012,12,16,22,22,4.90
2012,12,16,22,23,5.00
2012,12,16,22,24,5.00
2012,12,16,22,25,5.00
2012,12,16,22,26,5.00
2012,12,16,22,27,5.00
2012,12,16,22,28,5.00
2012,12,16,22,29,5.00
2012,12,16,22,30,5.00
2012,12,16,22,31,5.00
2012,12,16,22,32,5.00
2012,12,16,22,33,5.10
2012,12,16,22,34,5.10
2012,12,16,22,35,5.10
2012,12,16,22,36,5.10
2012,12,16,22,37,5.10
2012,12,16,22,38,5.10
2012,12,16,22,39,5.10
2012,12,16,22,40,5.10
2012,12,16,22,41,5.10
2012,12,16,22,42,5.10
2012,12,16,22,43,5.10
2012,12,16,22,44,5.10
2012,12,16,22,45,5.10
2012,12,16,22,46,5.20
2012,12,16,22,47,5.10
2012,12,16,22,48,5.10
2012,12,16,22,49,5.10
2012,12,16,22,50,5.00
2012,12,16,22,51,4.90
2012,12,16,22,52,4.80
2012,12,16,22,53,4.70
2012,12,16,22,54,4.70
2012,12,16,22,55,4.70
2012,12,16,22,56,4.70
2012,12,16,22,57,4.70
2012,12,16,22,58,4.60
2012,12,16,22,59,4.60
2012,12,16,23,00,4.60
2012,12,16,23,01,4.60
2012,12,16,23,02,4.60
2012,12,16,23,03,4.60
2012,12,16,23,04,4.60
2012,12,16,23,05,4.50
2012,12,16,23,06,4.50
2012,12,16,23,07,4.50
2012,12,16,23,08,4.50
2012,12,16,23,09,4.50
2012,12,16,23,10,4.60
2012,12,16,23,11,4.60
2012,12,16,23,12,4.70
2012,12,16,23,13,4.70
2012,12,16,23,14,4.70
2012,12,16,23,15,4.70
2012,12,16,23,16,4.80
2012,12,16,23,17,4.80
2012,12,16,23,18,4.80
2012,12,16,23,19,4.90
2012,12,16,23,20,5.00
2012,12,16,23,21,5.10
2012,12,16,23,22,5.10
2012,12,16,23,23,5.20
2012,12,16,23,24,5.20
2012,12,16,23,25,5.20
2012,12,16,23,26,5.20
2012,12,16,23,27,5.20
2012,12,16,23,28,5.20
2012,12,16,23,29,5.20
2012,12,16,23,30,5.10
2012,12,16,23,31,5.10
2012,12,16,23,32,5.00
2012,12,16,23,33,4.90
2012,12,16,23,34,4.80
2012,12,16,23,35,4.80
2012,12,16,23,36,4.80
2012,12,16,23,37,4.70
2012,12,16,23,38,4.70
2012,12,16,23,39,4.70
2012,12,16,23,40,4.80
2012,12,16,23,41,4.80
2012,12,16,23,42,4.80
2012,12,16,23,43,4.80
2012,12,16,23,44,4.80
2012,12,16,23,45,4.80
2012,12,16,23,46,4.80
2012,12,16,23,47,4.80
2012,12,16,23,48,4.80
2012,12,16,23,49,4.80
2012,12,16,23,50,4.80
2012,12,16,23,51,4.80
2012,12,16,23,52,4.90
2012,12,16,23,53,4.90
2012,12,16,23,54,4.90
2012,12,16,23,55,4.90
2012,12,16,23,56,5.00
2012,12,16,23,57,5.00
2012,12,16,23,58,5.00
2012,12,16,23,59,5.10
